TimeMST,TemperatureF,Dew PointF,Humidity,Sea Level PressureIn,VisibilityMPH,Wind Direction,Wind SpeedMPH,Gust SpeedMPH,PrecipitationIn,Events,Conditions,WindDirDegrees,DateUTC
12:53 AM,35.1,12.0,39,29.88,10.0,Variable,3.5,-,N/A,,Clear,0,2013-02-05 07:53:00
1:53 AM,34.0,12.9,42,29.89,10.0,WNW,11.5,-,N/A,,Clear,290,2013-02-05 08:53:00
2:53 AM,33.1,12.9,43,29.91,10.0,Calm,Calm,-,N/A,,Clear,0,2013-02-05 09:53:00
3:53 AM,30.9,14.0,50,29.94,10.0,North,3.5,-,N/A,,Clear,350,2013-02-05 10:53:00
4:53 AM,28.0,14.0,56,29.99,10.0,Calm,Calm,-,N/A,,Clear,0,2013-02-05 11:53:00
5:53 AM,24.1,12.0,60,30.04,10.0,NW,4.6,-,N/A,,Clear,320,2013-02-05 12:53:00
6:53 AM,25.0,12.9,60,30.04,10.0,NW,3.5,-,N/A,,Clear,310,2013-02-05 13:53:00
7:53 AM,27.0,14.0,58,30.03,10.0,NNW,4.6,-,N/A,,Clear,340,2013-02-05 14:53:00
8:53 AM,39.9,17.1,40,29.99,10.0,WNW,8.1,-,N/A,,Clear,290,2013-02-05 15:53:00
9:53 AM,41.0,12.9,32,30.00,10.0,SW,13.8,-,N/A,,Scattered Clouds,220,2013-02-05 16:53:00
10:53 AM,48.0,12.9,24,29.96,10.0,SSW,19.6,24.2,N/A,,Scattered Clouds,210,2013-02-05 17:53:00
11:53 AM,46.0,12.9,26,29.94,10.0,South,17.3,-,N/A,,Clear,190,2013-02-05 18:53:00
12:53 PM,46.0,12.9,26,29.90,10.0,South,19.6,27.6,N/A,,Clear,190,2013-02-05 19:53:00
1:53 PM,44.1,14.0,30,29.89,10.0,South,19.6,28.8,N/A,,Partly Cloudy,190,2013-02-05 20:53:00
2:53 PM,44.1,15.1,31,29.88,10.0,SSW,15.0,24.2,N/A,,Partly Cloudy,200,2013-02-05 21:53:00
3:53 PM,44.1,16.0,32,29.88,10.0,South,13.8,-,N/A,,Clear,190,2013-02-05 22:53:00
4:53 PM,44.1,15.1,31,29.90,10.0,SSW,16.1,-,N/A,,Clear,210,2013-02-05 23:53:00
5:53 PM,41.0,16.0,36,29.93,10.0,SSW,6.9,-,N/A,,Clear,200,2013-02-06 00:53:00
6:53 PM,39.9,16.0,38,29.93,10.0,SSW,5.8,-,N/A,,Clear,200,2013-02-06 01:53:00
7:53 PM,37.9,16.0,41,29.93,10.0,SW,3.5,-,N/A,,Clear,230,2013-02-06 02:53:00
8:53 PM,37.0,16.0,42,29.85,10.0,WNW,5.8,-,N/A,,Overcast,290,2013-02-06 03:53:00
9:53 PM,35.1,17.1,48,29.85,10.0,West,9.2,-,N/A,,Clear,260,2013-02-06 04:53:00
10:53 PM,36.0,16.0,44,29.80,10.0,NW,3.5,-,N/A,,Clear,310,2013-02-06 05:53:00
11:53 PM,33.8,17.6,52,29.85,10.0,West,9.2,-,N/A,,Clear,270,2013-02-06 06:53:00